Find Starlink 34101

NORAD ID: 63812 Int'l Des: 2025-092 Owner: SPXS Country: US Constellation: starlink operational
LEOCIRCULAR

Live Position

Loading 3D Globe...

About Starlink 34101

Description loading...

Upcoming Passes

Passes for default location (London). Set your location on the main map for personalized predictions.

Altitude History

Loading altitude history...

Two-Line Element Set

1 63812U 25092J 26125.60498966 .00016457 00000-0 60590-3 0 9998
2 63812 43.0002 210.7241 0001568 277.4247 82.6427 15.27598222 57263
Epoch: May 5, 2026 • Age: 19 hours

Current Status

Altitude 486.5 km
Velocity 7.63 km/s
Sub-Earth Point 41.04°N, 94.96°W
Launch Date May 4, 2025
Age 1 years
Type internet

Technical Details

Classification Payload
Mass 575.00 kg
Dry Mass 530.00 kg
Total Mass 575.00 kg
Length 0.30 m
Diameter 4.10 m
Span 29.00 m
Shape Box + pan
Manufacturer SPXS
Bus Type Starlink V2MO
Phase Status In Orbit
Owner/State SPXS/US

Most Searched